This demonstration page uses our WeatherBlox Daily Observations layout. Learn more.

Left ArrowRight Arrow

39.08367, -84.50855

Hourly Observations for November 10, 2015

Temp ( °F °C ) Dew Point ( °F °C ) Humidity (%) Winds ( mph kmh ) Pressure ( in mb ) Visibility ( mi km ) Precip ( " mm )
12:25 am 00:25 Cloudy with Light Rain 47 8.3 46 7.8 97 97 NNW 6 9 30.09 1019 4 6 0.01 0.25
12:53 am 00:53 Cloudy 47 8.3 46 7.8 97 97 Calm 30.09 1019 7 11 0.01 0.25
1:13 am 01:13 Cloudy with Light Rain 47 8.3 46 7.8 97 97 NNW 7 11 30.09 1019 4 6 0.01 0.25
1:53 am 01:53 Cloudy with Light Rain 46 7.8 46 7.8 100 100 WNW 7 11 30.09 1019 7 11 0.01 0.25
2:33 am 02:33 Cloudy with Mist and Fog 46 7.8 45 7.2 96 96 WNW 8 13 30.09 1019 6 10 0.00 0.03
2:53 am 02:53 Cloudy with Mist and Fog 46 7.8 44 6.7 93 93 WNW 7 11 30.10 1019 4 6 0.00 0.03
3:22 am 03:22 Cloudy with Mist and Fog 45 7.2 45 7.2 100 100 W 7 11 30.09 1019 4 6 0.00 0.00
3:43 am 03:43 Cloudy with Mist and Fog 45 7.2 45 7.2 100 100 W 8 13 30.09 1019 3 4 0.00 0.03
3:53 am 03:53 Cloudy with Mist and Fog 45 7.2 45 7.2 100 100 WNW 7 11 30.09 1019 3 5 0.00 0.03
4:53 am 04:53 Cloudy 45 7.2 44 6.7 97 97 WNW 5 7 30.09 1019 8 13 0.00 0.00
5:20 am 05:20 Cloudy 45 7 45 7 100 100 W 5 7 30.09 1019 7 11 0.00 0.00
5:53 am 05:53 Cloudy 45 7.2 44 6.7 97 97 WNW 5 7 30.11 1020 7 11 0.00 0.03
6:00 am 06:00 Cloudy 45 7.2 44 6.7 97 97 W 3 6 30.09 1019 7 11 0.00 0.00
6:53 am 06:53 Cloudy 45 7.2 44 6.7 97 97 WNW 7 11 30.12 1020 8 13 0.00 0.03
7:53 am 07:53 Cloudy with Mist and Fog 46 7.8 44 6.7 93 93 W 7 11 30.13 1020 6 10 0.00 0.00
8:53 am 08:53 Cloudy 47 8.3 44 6.7 90 90 VRB 3 6 30.14 1021 7 11 0.00 0.00
9:40 am 09:40 Cloudy 48 8.9 45 7.2 89 89 W 7 11 30.12 1020 10 16 0.00 0.00
9:53 am 09:53 Cloudy 48 8.9 45 7.2 89 89 W 9 15 30.14 1021 7 11 0.00 0.00
10:23 am 10:23 Cloudy 47 8.3 44 6.7 90 90 WNW 8 13 30.15 1021 10 16 0.00 0.00
10:53 am 10:53 Cloudy 48 8.9 44 6.7 86 86 W 7 11 30.14 1021 10 16 0.00 0.00
11:11 am 11:11 Cloudy 48 8.9 45 7.2 89 89 WSW 8 13 30.15 1021 10 16 0.00 0.00
11:53 am 11:53 Cloudy 48 8.9 44 6.7 86 86 W 8 13 30.14 1021 10 16 0.00 0.00
12:53 pm 12:53 Cloudy 50 10 44 6.7 80 80 W 8 13 30.11 1020 10 16 0.00 0.00
1:53 pm 13:53 Cloudy 50 10 44 6.7 80 80 W 7 11 30.10 1019 10 16 0.00 0.00
2:53 pm 14:53 Cloudy 50 10 43 6.1 77 77 NW 3 6 30.09 1019 10 16 0.00 0.00
3:53 pm 15:53 Mostly Cloudy 52 11.1 44 6.7 75 75 N 5 7 30.09 1019 10 16 0.00 0.00
4:53 pm 16:53 Partly Cloudy 50 10 44 6.7 80 80 NE 3 6 30.08 1019 10 16 0.00 0.00
5:53 pm 17:53 Mostly Clear 47 8.3 43 6.1 86 86 Calm 30.09 1019 10 16 0.00 0.00
6:53 pm 18:53 Clear 43 6.1 43 6.1 100 100 Calm 30.10 1019 10 16 0.00 0.00
7:53 pm 19:53 Clear 38 3.3 38 3.3 100 100 Calm 30.10 1019 10 16 0.00 0.00
8:53 pm 20:53 Clear 38 3.3 38 3.3 100 100 Calm 30.10 1019 10 16 0.00 0.00
9:00 pm 21:00 Clear with Mist and Fog 37 3 37 3 100 100 Calm 30.09 1019 3 4 0.00 0.00
9:09 pm 21:09 Clear 38 3.3 38 3.3 100 100 NE 3 6 30.09 1019 10 16 0.00 0.00
9:53 pm 21:53 Clear with Mist and Fog 38 3.3 38 3.3 100 100 Calm 30.10 1019 5 8 0.00 0.00
10:39 pm 22:39 Partly Cloudy with Fog 36 2.2 36 2.2 100 100 Calm 30.09 1019 1 1 0.00 0.00
10:50 pm 22:50 Cloudy with Fog 37 3 37 3 100 100 Calm 30.09 1019 0 0 0.00 0.00
10:53 pm 22:53 Cloudy with Fog 37 2.8 37 2.8 100 100 Calm 30.09 1019 0 0 0.00 0.00
11:53 pm 23:53 Mostly Cloudy with Fog 37 2.8 37 2.8 100 100 Calm 30.09 1019 0 0 0.00 0.00

Powered by AerisWeather